Regional Weather Roundup
Issued by NWS

Home | Current Version | Previous Version | Graphics & Text | Print | Product List | Glossary On
Versions: 1 2 3 4 5 6 7 8 9 10 11 12 13 14 15 16 17 18 19 20 21 22 23 24 25 26 27 28 29 30 31 32 33 34 35 36 37 38 39 40 41 42 43 44 45 46 47 48 49 50
000
ASUS43 KMKX 291711
RWRWI

WISCONSIN REGIONAL WEATHER ROUNDUP
NATIONAL WEATHER SERVICE MILWAUKEE/SULLIVAN WI
1200 PM CDT THU SEP 29 2016

NOTE: "FAIR" INDICATES FEW OR NO CLOUDS BELOW 12,000 FEET WITH NO
SIGNIFICANT WEATHER AND/OR OBSTRUCTIONS TO VISIBILITY.

WIZ001-002-006>008-014>016-023>028-291800-
NORTHWEST WISCONSIN

CITY           SKY/WX    TMP DP  RH WIND       PRES   REMARKS
SUPERIOR ARPT  CLOUDY    58  51  76 NE10      30.52F
ASHLAND        PTSUNNY   61  53  75 NE13      30.52S
HAYWARD        MOSUNNY   59  49  69 NE8       30.50S
SIREN          CLOUDY    59  49  69 NE9       30.49F
CUMBERLAND     MOSUNNY   59  50  72 NE8       30.48S
RICE LAKE      MOSUNNY   62  50  63 NE6       30.48F
CHETEK         NOT AVBL
LADYSMITH      SUNNY     61  52  71 NE9       30.48F
EAU CLAIRE     SUNNY     61  49  64 NE9       30.45F
MENOMONIE      SUNNY     64  50  60 N9        30.46S
NEW RICHMOND   PTSUNNY   62  49  64 E8        30.48S
OSCEOLA        PTSUNNY   62  50  65 NE6       30.51S
$$

WIZ003>005-009-010-017-018-291800-
NORTH CENTRAL WISCONSIN

CITY           SKY/WX    TMP DP  RH WIND       PRES   REMARKS
MANITOWISH WTR NOT AVBL
ARBOR VITAE    SUNNY     60  52  73 NE6       30.48S
WOODRUFF       SUNNY     60  52  73 NE6       30.48S
RHINELANDER    SUNNY     62  53  72 NE7       30.47F
EAGLE RIVER    MOSUNNY   60  50  70 NE9       30.47F
LAND O LAKES   CLOUDY    58  52  80 N10       30.50F
PHILLIPS       MOSUNNY   60  51  73 NE7       30.48R
TOMAHAWK       SUNNY     61  51  69 N7        30.47F
MEDFORD        SUNNY     61  52  73 NE10      30.45S
MERRILL        SUNNY     62  52  69 NE10      30.46S
$$

WIZ029-030-035-036-043>047-291800-
CENTRAL WISCONSIN

CITY           SKY/WX    TMP DP  RH WIND       PRES   REMARKS
WAUSAU         SUNNY     63  51  65 N8        30.42S
MOSINEE        SUNNY     63  54  72 N10       30.43S
MARSHFIELD     SUNNY     65  51  60 NE10      30.42S
STEVENS POINT  SUNNY     65  51  60 NE6       30.41S
WAUPACA        SUNNY     71  53  52 N8        30.38S
WAUTOMA        SUNNY     69  52  54 N9G21     30.37R
WISC RAPIDS    SUNNY     67  53  61 N12G20    30.41S
CAMP DOUGLAS   SUNNY     66  55  68 N10       30.38F
$$

WIZ011>013-019>022-031-037>040-048>050-291800-
NORTHEAST WISCONSIN

CITY           SKY/WX    TMP DP  RH WIND       PRES   REMARKS
ANTIGO         SUNNY     63  53  69 NE8       30.44S
SHAWANO        SUNNY     69  54  59 N10       30.39F
OCONTO         NOT AVBL
STURGEON BAY   SUNNY     68  56  65 NE10      30.38S
GREEN BAY      SUNNY     66  58  75 NE21      30.37S
MANITOWOC      PTSUNNY   66  57  72 NE17G29   30.33S
APPLETON       MOSUNNY   66  50  55 NE17G23   30.36R
CLINTONVILLE   SUNNY     68  50  52 N10       30.38S
OSHKOSH        SUNNY     65  55  70 NE17G23   30.35S
$$

WIZ032>034-041-042-053>061-291800-
SOUTHWEST WISCONSIN

CITY           SKY/WX    TMP DP  RH WIND       PRES   REMARKS
LA CROSSE      SUNNY     65  53  65 NW12      30.41F
SPARTA         SUNNY     63  53  69 N7        30.41S
VIROQUA        SUNNY     65  51  60 N10       30.39F
BOSCOBEL       SUNNY     70  51  51 NE9G18    30.35F
PRAIRIE DU CHI SUNNY     66  50  57 NW9       30.36S
PLATTEVILLE    SUNNY     67  53  59 NE14G22   30.33R
$$

WIZ056-057-062-063-064-067-068-291800-
SOUTH CENTRAL WISCONSIN

CITY           SKY/WX    TMP DP  RH WIND       PRES   REMARKS
REEDSBURG      NOT AVBL
BARABOO/DELLS  SUNNY     67  50  54 NE9G16    30.35S
LONE ROCK      SUNNY     69  52  54 N16G25    30.34F
MINERAL POINT  SUNNY     68  52  56 N13G22    30.33S
MADISON        MOSUNNY   67  54  63 NE16G24   30.31S
MIDDLETON      SUNNY     68  53  59 NE18      30.32S
WATERTOWN      MOSUNNY   67  57  71 N13G24    30.29S
MONROE         SUNNY     64  54  68 N16G24    30.29S
JANESVILLE     PTSUNNY   66  55  68 N14G20    30.26R
$$

WIZ051-052-058>065-066-070>072-291800-
SOUTHEAST WISCONSIN

CITY           SKY/WX    TMP DP  RH WIND       PRES   REMARKS
MILWAUKEE      PTSUNNY   63  56  78 N15G24    30.28R
WAUKESHA       CLOUDY    63  54  72 NE23G31   30.29R
MILWAUKEE/TIMM PTSUNNY   64  55  72 NE21G31   30.28S
RACINE         CLOUDY    63  55  75 NE17G25   30.26R
BURLINGTON     PTSUNNY   64  54  69 NE20G26   30.26R
KENOSHA        CLOUDY    63  55  75 NE17G26   30.24R
FOND DU LAC    SUNNY     66  57  72 N17G25    30.34S
SHEBOYGAN      PTSUNNY   67  58  72 NE23G30   30.32R
WEST BEND      PTSUNNY   70  63  78 NE20G30   30.30S
JUNEAU         MOSUNNY   64  56  74 N16G24    30.32S
$$

LSZ147-162-291800-
LAKE SUPERIOR

STATION/POSITION TIME  TEMP    WIND        PRES    WAVE
                       AIR SEA DIR/SP/G            HT/PER
                 (UTC) (F)     (DEG/KT/KT) (MB)    (FT/S)
W MID LAKE BUOY  1650   55 55   50/  8/  8 1033.6R   2/ 5
DEVILS ISLAND    1600   53      40/ 10/ 11 1034.1R
SAXON HARBOR     1600   57      40/ 11/ 13 1032.8S
$$

LMZ867-665-643>646-291800-
LAKE MICHIGAN

STATION/POSITION TIME  TEMP    WIND        PRES    WAVE
                       AIR SEA DIR/SP/G            HT/PER
                 (UTC) (F)     (DEG/KT/KT) (MB)    (FT/S)
CHAMBERS ISLAND  1600   62      10/ 16/ 20 1028.4S
N MID LAKE BUOY  1650   62 66   40/ 16/ 19 1028.4R   3/ 4
NORTHPORT PIER   1600   63      10/ 12/ 15 1028.8
SISTER BAY       1623   69      10/ 13/ 15   N/A
KEWAUNEE LAKESHO 1600   62      10/ 11/ 18 1027.3R
SHEBOYGAN LAKESH 1700   61      20/ 19/ 20 1026.4R
PORT WASHINGTON  1608   65      40/ 19/ 26 1026.4R
ATWATER BUOY     1600   56 52   20/ 14/ 19 1024.7R
MILWAUKEE LAKESH 1610   59      20/ 18/ 21   N/A
S MID LAKE BUOY  1650   64 69   50/ 21/ 27 1022.1R   7/ 6
KENOSHA   LAKESH 1700   58      10/ 18/ 20 1023.4S
$$

TC  - TEMPERATURE IN CELSIUS
VSB - VISIBILITY IN STATUTE MILES
WCI - WIND CHILL INDEX
HX  - HEAT INDEX





USA.gov is the U.S. government's official web portal to all federal, state and local government web resources and services.